Regional Weather Roundup
Issued by NWS Sioux Falls, SD

Home | Current Version | Previous Version | Text Only | Print | Product List | Glossary On
Versions: 1 2 3 4 5 6 7 8 9 10 11 12 13 14 15 16 17 18 19 20 21 22 23 24 25 26 27 28 29 30 31 32 33 34 35 36 37 38 39 40 41 42 43 44 45 46 47 48 49 50
000
ASUS43 KFSD 020902
RWRFSD

WEATHER ROUNDUP FOR SE SOUTH DAKOTA/SW MINNESOTA/NW IOWA
NATIONAL WEATHER SERVICE SIOUX FALLS SD
400 AM CDT THU JUL 02 2015

NOTE: "FAIR" INDICATES FEW OR NO CLOUDS BELOW 12,000 FEET WITH NO
SIGNIFICANT WEATHER AND OR OBSTRUCTIONS TO VISIBILITY.


SDZ038>040-050-052>070-021000-
SOUTHEAST SOUTH DAKOTA

CITY           SKY/WX    TMP DP  RH WIND       PRES   REMARKS
BROOKINGS      PTCLDY    57  52  82 SE5       30.02R
CHAMBERLAIN    NOT AVBL
HURON          CLOUDY    61  58  90 SE9       29.96R
MADISON        FAIR      57  57 100 SE8       30.00S
MITCHELL       CLOUDY    61  58  90 SE7       29.97S
SIOUX FALLS    CLOUDY    59  55  87 E6        30.00R
WINNER         PTSUNNY   69  63  81 S3        29.95F
YANKTON        MOCLDY    61  55  82 E7        29.96R
$$

MNZ071-072-080-081-089-090-097-098-021000-
SOUTHWEST MINNESOTA

CITY           SKY/WX    TMP DP  RH WIND       PRES   REMARKS
FAIRMONT       CLEAR     52  46  82 CALM      30.01R
JACKSON        MOCLDY    54  50  87 SE5       30.02R
MARSHALL       CLEAR     54  46  76 S5        30.00R
MONTEVIDEO     CLEAR     52  52 100 CALM      30.02R
PIPESTONE      PTCLDY    55  54  94 SE5       30.00S
REDWOOD FALLS  CLEAR     53  52  96 CALM      30.01R
TRACY          CLEAR     57  51  79 S7        30.01R
WINDOM         CLEAR     54  50  87 CALM      30.02R
WORTHINGTON    MOCLDY    54  48  82 SE6       30.02R
$$

IAZ001>003-012>014-020>022-031-032-NEZ013-014-SDZ071-021000-
NORTHWEST IOWA

CITY           SKY/WX    TMP DP  RH WIND       PRES   REMARKS
ESTHERVILLE    PTCLDY    50  49  96 CALM      30.01R
SIOUX CITY     CLOUDY    60  53  77 SE6       29.98R
SPENCER        CLEAR     52  49  89 NE5       30.00R
$$

ABBREVIATIONS USED IN REMARKS
   TC - TEMPERATURE IN CELSIUS
  WCI - WIND CHILL INDEX
   HX - HEAT INDEX
  VSB - VISIBILITY



USA.gov is the U.S. government's official web portal to all federal, state and local government web resources and services.